TimeCDT,TemperatureF,Dew PointF,Humidity,Sea Level PressureIn,VisibilityMPH,Wind Direction,Wind SpeedMPH,Gust SpeedMPH,PrecipitationIn,Events,Conditions,WindDirDegrees,DateUTC
12:53 AM,64.9,59.0,81,30.08,10.0,Calm,Calm,-,N/A,,Overcast,0,2013-10-29 05:53:00
1:53 AM,66.0,60.1,81,30.06,10.0,SSE,13.8,21.9,N/A,,Overcast,150,2013-10-29 06:53:00
2:53 AM,66.0,60.1,81,30.05,10.0,SSE,10.4,18.4,N/A,,Overcast,150,2013-10-29 07:53:00
3:34 AM,66.2,60.8,83,30.06,10.0,SSE,10.4,18.4,N/A,,Overcast,160,2013-10-29 08:34:00
3:53 AM,66.0,60.1,81,30.04,10.0,SSE,10.4,19.6,N/A,,Overcast,160,2013-10-29 08:53:00
4:53 AM,66.0,61.0,84,30.04,10.0,SSE,9.2,17.3,N/A,,Overcast,160,2013-10-29 09:53:00
5:53 AM,66.0,62.1,87,30.04,10.0,South,8.1,25.3,N/A,,Overcast,180,2013-10-29 10:53:00
6:53 AM,66.0,62.1,87,30.04,10.0,South,12.7,18.4,N/A,,Overcast,170,2013-10-29 11:53:00
7:53 AM,66.0,63.0,90,30.04,10.0,South,9.2,18.4,0.00,,Overcast,180,2013-10-29 12:53:00
8:03 AM,66.2,62.6,88,30.05,10.0,South,11.5,19.6,N/A,,Mostly Cloudy,180,2013-10-29 13:03:00
8:16 AM,66.2,62.6,88,30.05,10.0,South,11.5,19.6,N/A,,Scattered Clouds,180,2013-10-29 13:16:00
8:53 AM,66.9,63.0,87,30.05,10.0,South,13.8,18.4,N/A,,Overcast,180,2013-10-29 13:53:00
9:53 AM,69.1,63.0,81,30.06,10.0,South,10.4,21.9,N/A,,Overcast,190,2013-10-29 14:53:00
10:53 AM,69.1,64.0,84,30.06,10.0,South,11.5,18.4,N/A,,Overcast,190,2013-10-29 15:53:00
11:04 AM,69.8,64.4,83,30.07,10.0,South,10.4,21.9,N/A,,Overcast,190,2013-10-29 16:04:00
11:21 AM,69.8,64.4,83,30.07,10.0,South,12.7,20.7,N/A,,Overcast,180,2013-10-29 16:21:00
11:53 AM,69.1,64.0,84,30.05,10.0,South,10.4,18.4,N/A,,Overcast,180,2013-10-29 16:53:00
12:53 PM,70.0,64.9,84,30.04,10.0,South,8.1,-,N/A,,Overcast,180,2013-10-29 17:53:00
1:25 PM,71.6,64.4,78,30.04,10.0,South,8.1,-,N/A,,Overcast,190,2013-10-29 18:25:00
1:53 PM,72.0,64.9,78,30.00,10.0,South,10.4,16.1,N/A,,Overcast,190,2013-10-29 18:53:00
2:53 PM,73.0,64.9,76,29.98,10.0,South,12.7,19.6,N/A,,Overcast,180,2013-10-29 19:53:00
3:53 PM,73.0,66.0,79,29.97,10.0,South,10.4,20.7,N/A,,Overcast,180,2013-10-29 20:53:00
4:53 PM,73.0,66.0,79,29.99,10.0,South,9.2,16.1,N/A,,Overcast,170,2013-10-29 21:53:00
5:53 PM,72.0,66.0,81,29.99,10.0,South,8.1,-,N/A,,Overcast,190,2013-10-29 22:53:00
6:53 PM,70.0,66.9,90,30.00,10.0,South,5.8,-,0.00,,Overcast,170,2013-10-29 23:53:00
7:29 PM,69.8,66.2,88,30.01,10.0,SSE,4.6,-,N/A,,Overcast,160,2013-10-30 00:29:00
7:53 PM,70.0,66.0,87,30.00,10.0,South,6.9,-,N/A,,Mostly Cloudy,170,2013-10-30 00:53:00
8:10 PM,69.8,66.2,88,30.03,10.0,South,5.8,-,N/A,,Mostly Cloudy,170,2013-10-30 01:10:00
8:38 PM,69.8,66.2,88,30.02,10.0,SSE,8.1,-,N/A,,Mostly Cloudy,160,2013-10-30 01:38:00
8:53 PM,71.1,64.9,81,30.00,10.0,South,9.2,-,N/A,,Partly Cloudy,180,2013-10-30 01:53:00
9:53 PM,71.1,64.9,81,29.99,10.0,SSE,5.8,20.7,N/A,,Clear,160,2013-10-30 02:53:00
10:53 PM,71.1,64.9,81,30.00,10.0,South,8.1,19.6,N/A,,Clear,180,2013-10-30 03:53:00
11:53 PM,71.1,64.9,81,30.00,10.0,South,10.4,20.7,N/A,,Scattered Clouds,190,2013-10-30 04:53:00